Location: Unspecified
(0.0000°N, 0.0000°E)
Time: 16:33:16
(UTC+00:00)

Vanguard 1 Rocket - Pass Details

Date: 28 November 2019
Orbit: 650 x 4226 km, 34.3° (Epoch: 12 December)

Event Time Altitude Azimuth Distance (km) Brightness Sun altitude
Rises 15:34:06 0° 228° (SW) 7,681 13.2 30.9°
Reaches altitude 10° 15:41:15 10° 215° (SW) 7,073 13.0 29.3°
Maximum altitude 16:00:27 25° 166° (SSE) 6,171 11.9 24.9°
Drops below altitude 10° 16:18:16 10° 117° (ESE) 6,660 11.5 20.8°
Sets 16:24:30 0° 105° (ESE) 7,192 11.5 19.4°
